User: anonymous   Login
Location: Unspecified
(0.0000°N, 0.0000°E)
Time: 09:24:03
(UTC+00:00)
Language:

TET - Orbit

View from above orbital plane
View from above orbital plane
View from above satellite
View from above satellite

Ground track
Ground track

The orbit data is extracted from the following two-line orbital elements,

1 38710U 12039D   18018.58867251 +.00002243 +00000-0 +46643-4 0  9992
2 38710 097.5730 348.7631 0002839 118.6459 241.5076 15.46816553307526
Epoch (UTC): 18 January 2018 14:07:41
Eccentricity: 0.0002839
inclination: 97.5730°
perigee height: 424 km
apogee height: 428 km
right ascension of ascending node: 348.7631°
argument of perigee: 118.6459°
revolutions per day: 15.46816553
mean anomaly at epoch: 241.5076°
orbit number at epoch: 30752

The dashed part of the orbit path shows where the satellite is in the earth's shadow,  

DLR